Qianfan Jigui 02-07

operational
NORAD ID: 61558 Int'l Des: 2024-185 Owner: YUANX Country: CN Constellation: qianfan
LEOCIRCULARPOLAR

Qianfan Jigui 02-07について

説明を読み込み中...

リアルタイム位置

3D地球を読み込み中...

次回通過

高度履歴

Altitude vs Time

uPlot chart will show altitude changes over time

軌道要素

1 61558U 24185G 26063.14228296 .00000595 00000-0 35451-3 0 9996
2 61558 88.9747 68.9584 0011920 69.3441 290.9018 14.05993676 80940
Epoch: Mar 4, 2026 • Age: 19 hours

現在のステータス

高度 884.6 km
速度 7.41 km/s
衛星直下点 -28.36°S, 14°W
打ち上げ日 Oct 15, 2024
運用期間 1.3 years
タイプ internet

技術仕様

分類 Payload
質量 267.00 kg
乾燥質量 267.00 kg
総質量 267.00 kg
長さ 0.30 m
直径 3.00 m
スパン 10.00 m
形状 Box+pan
製造者 GESIH/SECM
バスタイプ Qianfan
フェーズステータス In Orbit
所有者/国 YUANX/CN

大規模コンステレーション

Loading constellations...